User: anonymous   Login
Location: Bílinka
(49.3579°N, 14.3767°E)
Time: 06:58:23
(UTC+00:00)
Language:

PSLV R/B - Orbit

View from above orbital plane
View from above orbital plane
View from above satellite
View from above satellite

Ground track
Ground track

The orbit data is extracted from the following two-line orbital elements,

1 26960U 01049D   24104.66147918  .00011761  00000-0  50253-3 0  9994
2 26960  97.7419 148.9340 0038762 307.5961  52.1757 15.22336893230204
Epoch (UTC): 13 April 2024 15:52:31
Eccentricity: 0.0038762
inclination: 97.7419°
perigee height: 472 km
apogee height: 525 km
right ascension of ascending node: 148.9340°
argument of perigee: 307.5961°
revolutions per day: 15.22336893
mean anomaly at epoch: 52.1757°
orbit number at epoch: 23020

The dashed part of the orbit path shows where the satellite is in the earth's shadow,  

DLR